Regional Weather Roundup
Issued by NWS

Home | Current Version | Previous Version | Graphics & Text | Print | Product List | Glossary On
Versions: 1 2 3 4 5 6 7 8 9 10 11 12 13 14 15 16 17 18 19 20 21 22 23 24 25 26 27 28 29 30 31 32 33 34 35 36 37 38 39 40 41 42 43 44 45 46 47 48 49 50
000
ASUS45 KTFX 202319
RWRMT
MONTANA HOURLY WEATHER ROUNDUP
NATIONAL WEATHER SERVICE GREAT FALLS MT
419 PM MST THU NOV 20 2014

NOTE: "FAIR" INDICATES FEW OR NO CLOUDS BELOW 12000 FEET WITH NO
SIGNIFICANT WEATHER AND/OR OBSTRUCTIONS TO VISIBILITY.

* THESE STATIONS ARE NOT UNDER NWS QUALITY CONTROL. THEY DO NOT
   REPORT WEATHER SUCH AS PRECIPITATION OR FOG.

MTZ001>007-043-210000-
WEST OF THE DIVIDE
CITY           SKY/WX    TMP DP  RH WIND       PRES   REMARKS
KALISPELL      FOG       27  27 100 CALM      29.99S VSB 1/2
MISSOULA       CLOUDY    30  25  82 CALM      30.02R
BUTTE          CLOUDY    41  25  53 W7        29.93R
MULLAN PASS    FOG       28  28 100 VRB6      29.92R VSB M1/4 WCI  21
* ESSEX        N/A       28  23  81 N/A        N/A
* EUREKA APT   PTSUNNY   25  19  78 CALM      29.99F
* HAMILTON APT PTSUNNY   32  23  69 N2        30.00R
* LIBBY APT    CLOUDY    28  21  75 CALM      30.01S
* LINCOLN      N/A       38  20  48 S8G15      N/A   WCI  32
* LOOKOUT PASS N/A       33  30  89 S6         N/A   WCI  27
* POLSON       N/A       26  24  92 S1         N/A
* RONAN APT    CLOUDY    27  23  85 N/A        N/A
* SEELEY LAKE  N/A       34  23  64 N/A        N/A
* THOMP F APT  PTSUNNY   32  17  54 S6G12      N/A   WCI  26
* YAAK HILL    N/A       30  20  66 N/A        N/A
$$

MTZ008-052>055-210000-
SOUTHWEST MONTANA
CITY           SKY/WX    TMP DP  RH WIND       PRES   REMARKS
BOZEMAN        PTSUNNY   34  23  64 N3        29.91R
DILLON         CLOUDY    37  25  62 S15       29.94R WCI  28
* W YELLOWSTON PTCLDY    33  17  52 SW4G11     N/A
* ENNIS APT    PTSUNNY   39  21  48 S15G20     N/A   WCI  31
* THREE FORKS  PTSUNNY   39  28  65 N/A        N/A
* TWIN BRIDGES CLOUDY    39  21  48 N/A        N/A
* BOULDER HILL N/A       40  18  41 S4         N/A
* MONIDA PASS  N/A       29  18  63 SE14G20    N/A   WCI  18
* RAYNOLDS PAS N/A       32  14  47 SE17       N/A   WCI  21
* WHITEHALL    N/A       44  21  40 SW11G19    N/A
* WISE RIVER   N/A       40  25  55 NW11G17    N/A   WCI  33
$$

MTZ009>010-012-014-046-048-049-054-210000-
EAST SLOPES AND CENTRAL MONTANA
CITY           SKY/WX    TMP DP  RH WIND       PRES   REMARKS
CUT BANK       PTSUNNY   43  25  49 W29G35    29.74F
GREAT FALLS    PTSUNNY   45  25  45 SW15      29.78S
HELENA         CLOUDY    39  25  57 CALM      29.88S
MALMSTROM AFB  PTSUNNY   43  27  53 SW21G28   29.80S
* CONRAD       PTSUNNY   43  34  71 CALM       N/A
* DEARBORN     N/A       48  23  37 S13G22     N/A
* EAST GLACIER N/A       38  23  55 W30G39     N/A   WCI  26
* MONARCH      N/A       43  14  31 SW14G20    N/A
* PENDROY      N/A       44  20  38 W4G12      N/A
* ROGERS PASS  N/A       37  22  55 SE14G29    N/A   WCI  28
* SAINT MARY   N/A       39  25  57 SW9G24     N/A   WCI  33
* SWEET GRASS  N/A       42  27  55 SW9G16     N/A
* WHITE SULPH  N/A       43  21  42 NW4G10     N/A
$$

MTZ011-013-016-021-035-040-045-047-050-051-210000-
NORTH CENTRAL MONTANA
CITY           SKY/WX    TMP DP  RH WIND       PRES   REMARKS
HAVRE          PTCLDY    34  25  70 W9        29.76S WCI  27
LEWISTOWN      PTCLDY    43  28  56 SW8       29.80R
* N BAR RANCH  SUNNY     48  18  30 NW9       29.80S
* CHINOOK      PTSUNNY   25  21  85 E6        29.79S WCI  18
* FORT BENTON  PTCLDY    28  27  96 CALM      29.79F
* CHESTER      N/A       36  26  67 S3         N/A
* DENTON       N/A       45  23  42 SW8        N/A
* GEYSER       N/A       48  16  28 W14G24     N/A
* JUDITH GAP   N/A       46  17  31 NE9        N/A
* LOMA         N/A       25  24  96 N/A        N/A
$$

MTZ017>020-022>027-061-062-210000-
NORTHEAST MONTANA
CITY           SKY/WX    TMP DP  RH WIND       PRES   REMARKS
GLASGOW        PTCLDY    23  18  81 E8        29.80F WCI  14
GLENDIVE       PTCLDY    21  16  81 W5        29.85F WCI  14
JORDAN         PTCLDY    32  25  75 CALM      29.79S
SIDNEY         PTSUNNY   21  16  81 SE6       29.89S WCI  13
WOLF POINT     PTCLDY    28  19  69 E3        29.83F
* BEAVER HILL  N/A       26  19  75 SE11       N/A   WCI  16
* CIRCLE       N/A       32  25  75 N/A        N/A
* LINDSAY DVD  N/A       21  20  96 SE6        N/A   WCI  13
* NAVAJO       N/A       18  16  92 S11        N/A   WCI   6
* PLENTYWOOD A PTSUNNY   19  16  88 S13       29.82F WCI   6
* POPLAR APT   PTCLDY    28  21  75 N/A       29.83F
* SACO         N/A       26  20  78 E4         N/A
* SCOBEY APT   CLOUDY    19  10  68 N/A        N/A
$$

MTZ028>042-056>058-210000-
SOUTHCENTRAL AND SOUTHEAST MONTANA
CITY           SKY/WX    TMP DP  RH WIND       PRES   REMARKS
BAKER          SUNNY     30  21  69 SE8       29.85S WCI  22
BILLINGS       PTCLDY    39  21  48 SW21      29.84R WCI  29
LIVINGSTON     PTCLDY    46  21  37 W18G24    29.86S
MILES CITY     PTCLDY    34  25  70 SE5       29.82F WCI  29
* BIG TIMBER A PTCLDY    46  19  34 SW18G23   29.83S
* FORSYTH APT  SUNNY     37  28  70 CALM      29.82S
* LAUREL APT   PTCLDY    39  19  45 S10G16     N/A   WCI  32
* ALZADA       N/A       32  23  69 E6         N/A   WCI  26
* HYSHAM       N/A       43  17  35 W5         N/A
* LAME DEER    N/A       44  20  38 W8         N/A
* REED POINT   N/A       49  21  33 SW6G11     N/A
* ROSCOE HILL  N/A       41  14  33 NW2        N/A
$$

REGIONAL REPORTS...DAKOTAS
CITY           SKY/WX    TMP DP  RH WIND       PRES   REMARKS
WILLISTON      PTCLDY    23  12  63 S7        29.87F WCI  15
DICKINSON      PTCLDY    21  16  81 S14       29.86F WCI   8
BEACH          SUNNY     25  21  85 S9        29.85F WCI  16
CROSBY         PTSUNNY   19  12  74 S10       29.85F WCI   8
TIOGA          CLOUDY    18  14  84 S12       29.88F WCI   5
BISMARCK       PTCLDY    19   9  65 S7        30.03S WCI  10
GRAND FORKS    SUNNY     12   3  67 S6        30.11F WCI   2
FARGO          SUNNY     19   1  45 CALM      30.14S
BUFFALO SD     SUNNY     32  21  64 S9        29.82S WCI  24
RAPID CITY     SUNNY     25  19  78 SE8       29.92R WCI  16
$$

REGIONAL REPORTS...WYOMING/IDAHO/WASHINGTON
CITY           SKY/WX    TMP DP  RH WIND       PRES   REMARKS
GILLETTE       PTCLDY    39  25  57 SW5       29.86S WCI  35
SHERIDAN       PTCLDY    43  27  53 CALM      29.84F
CODY           PTSUNNY   30  21  69 SE5       29.87F WCI  25
YELLOWSTONE LA PTCLDY    30  16  56 VRB3      30.03R
SALMON         CLOUDY    30  19  64 CALM      30.05S
MULLAN PASS    FOG       28  28 100 VRB6      29.92S VSB M1/4 WCI  21
SAND POINT     CLOUDY    32  32 100 S5        30.04R WCI  27
SPOKANE        FOG       34  28  79 E5        30.01S VSB 3    WCI  29
$$

REGIONAL REPORTS...ALBERTA
CITY           SKY/WX    TMP DP  RH WIND       PRES   REMARKS
CALGARY        PTSUNNY   48  25  41 W16G24    29.60S
LETHBRIDGE     PTSUNNY   43  30  60 W22G28    29.70S
MEDICINE HAT   PTSUNNY   36  28  73 SW12      29.68S WCI  28
EDMONTON       CLOUDY    37  30  76 S3        29.55F
WATERTON GATE  N/A       39  27  62 SW23G36    N/A   WCI  28
CARDSTON       N/A       43  30  60 W9         N/A
MILK RIVER     N/A       41  30  65 W9         N/A
$$

REGIONAL REPORTS...SASKATCHEWAN
CITY           SKY/WX    TMP DP  RH WIND       PRES   REMARKS
SWIFT CURRENT  SUNNY     27  21  78 S10       29.68S WCI  18
MOOSE JAW      PTSUNNY   27  21  78 S6        29.76F WCI  20
REGINA         PTSUNNY   21  18  88 S14       29.79F WCI   8
VAL MARIE      N/A       21  19  92 S7         N/A   WCI  12
ASSINIBOIA     N/A       23  18  81 SW8        N/A   WCI  14
CORONACH       N/A       21  19  92 S12        N/A   WCI   9

$$



USA.gov is the U.S. government's official web portal to all federal, state and local government web resources and services.